Location: St. Louis
(38.6270°N, 90.1994°W)
Time: 09:13:45
(UTC-06:00)

SR - Pass Details

Date: 07 December 2021
Orbit: 582 x 872 km, 66.7° (Epoch: 21 January)

Event Time Altitude Azimuth Distance (km) Brightness Sun altitude
Rises 22:34:30 0° 221° (SW) 3,004 - -67.0°
Reaches altitude 10° 22:36:56 10° 226° (SW) 2,050 - -67.3°
Maximum altitude 22:41:23 48° 302° (WNW) 810 - -68.0°
Drops below altitude 10° 22:45:36 10° 17° (NNE) 1,941 - -68.6°
Sets 22:47:52 0° 23° (NNE) 2,827 - -68.9°
